TOM285 HESH-EGKK

Flight info

Callsign TOM285
Flight time N/A
Altitude 34000
Route SHM L677 CVO L617 NOZ L551 ANTAR DCT LAPSO DCT KUPIS DCT PEXAN DCT KUGGI DCT XANIS DCT DIMIS DCT RODON DCT VAKSU/N0440F360 DCT SPL DCT NAKIT DCT PEVAL DCT SUXAN DCT BEGAR DCT ETINO DCT KESAX DCT KUNAV
Aircraft B738/M-SDE2E3FGHIRWXY/LB1

Departure

Time 2026-05-04 14:33
Airport Sharm El Sheikh International Airport (HESH)

Arrival

Time N/A
Airport London Gatwick Airport (EGKK)
Time Latitude Longitude Altitude Speed Heading
2026-05-04 14:11 27.97626 34.38516 171 ft 0 kts 133°
2026-05-04 14:29 27.97611 34.38534 171 ft 5 kts 134°
2026-05-04 14:30 27.97574 34.38575 171 ft 10 kts 137°
2026-05-04 14:30 27.97510 34.38620 171 ft 11 kts 184°
2026-05-04 14:30 27.97357 34.38473 171 ft 18 kts 226°
2026-05-04 14:31 27.97255 34.38371 171 ft 21 kts 221°
2026-05-04 14:31 27.97018 34.38138 172 ft 23 kts 197°
2026-05-04 14:32 27.96788 34.38358 173 ft 22 kts 134°
2026-05-04 14:32 27.96686 34.38484 173 ft 21 kts 131°
2026-05-04 14:32 27.96610 34.38614 173 ft 20 kts 79°
2026-05-04 14:32 27.96710 34.38745 173 ft 34 kts 46°
2026-05-04 14:33 27.97081 34.39127 173 ft 107 kts 42°
2026-05-04 14:33 27.97786 34.39855 202 ft 164 kts 42°
2026-05-04 14:33 27.98592 34.40782 939 ft 163 kts 48°
2026-05-04 14:33 27.99383 34.41744 1716 ft 169 kts 44°
2026-05-04 14:34 28.00251 34.42682 2217 ft 181 kts 43°
2026-05-04 14:34 28.01291 34.43683 2384 ft 212 kts 26°
2026-05-04 14:34 28.02844 34.43836 2439 ft 237 kts 346°
2026-05-04 14:34 28.04199 34.42791 2402 ft 244 kts 309°
2026-05-04 14:35 28.04845 34.41697 2500 ft 257 kts 305°
2026-05-04 14:35 28.05839 34.39930 3083 ft 267 kts 305°
2026-05-04 14:35 28.06863 34.38153 3891 ft 266 kts 306°
2026-05-04 14:35 28.07914 34.36392 4741 ft 267 kts 306°
2026-05-04 14:36 28.08988 34.34643 5522 ft 267 kts 306°
2026-05-04 14:36 28.10058 34.32919 6314 ft 268 kts 305°
2026-05-04 14:36 28.11119 34.31191 7101 ft 267 kts 304°
2026-05-04 14:36 28.12195 34.29464 7820 ft 269 kts 304°
2026-05-04 14:37 28.13286 34.27741 8565 ft 270 kts 304°
2026-05-04 14:37 28.14387 34.26028 9426 ft 267 kts 303°
2026-05-04 14:37 28.15482 34.24341 10228 ft 263 kts 303°
2026-05-04 14:37 28.16572 34.22670 10778 ft 268 kts 303°
2026-05-04 14:38 28.17712 34.20930 11335 ft 273 kts 303°
2026-05-04 14:38 28.18846 34.19204 11962 ft 276 kts 302°
2026-05-04 14:38 28.20025 34.17415 12647 ft 280 kts 302°
2026-05-04 14:38 28.21187 34.15656 13439 ft 279 kts 302°
2026-05-04 14:39 28.22389 34.13837 14094 ft 282 kts 302°
2026-05-04 14:39 28.23592 34.12012 14348 ft 298 kts 302°
2026-05-04 14:39 28.24890 34.10039 14503 ft 316 kts 302°
2026-05-04 14:40 28.27694 34.05787 14802 ft 348 kts 302°
2026-05-04 14:40 28.29186 34.03533 15135 ft 356 kts 303°
2026-05-04 14:40 28.30690 34.01261 15585 ft 361 kts 303°
2026-05-04 14:40 28.32179 33.99012 16250 ft 359 kts 302°
2026-05-04 14:41 28.33689 33.96729 16595 ft 361 kts 302°
2026-05-04 14:41 28.35201 33.94441 16892 ft 363 kts 302°
2026-05-04 14:41 28.38247 33.89815 17909 ft 365 kts 302°
2026-05-04 14:42 28.41273 33.85212 18801 ft 371 kts 302°
2026-05-04 14:42 28.42924 33.82700 19281 ft 373 kts 301°
2026-05-04 14:42 28.44480 33.80329 19737 ft 376 kts 301°
2026-05-04 14:43 28.46049 33.77938 20188 ft 379 kts 301°
2026-05-04 14:43 28.47628 33.75530 20671 ft 379 kts 301°
2026-05-04 14:43 28.49205 33.73124 21142 ft 380 kts 301°
2026-05-04 14:43 28.50789 33.70707 21513 ft 383 kts 301°
2026-05-04 14:44 28.52386 33.68269 21850 ft 387 kts 301°
2026-05-04 14:44 28.54005 33.65801 22204 ft 390 kts 302°
2026-05-04 14:44 28.55692 33.63358 22571 ft 395 kts 303°
2026-05-04 14:44 28.57439 33.60937 23007 ft 397 kts 304°
2026-05-04 14:45 28.59201 33.58509 23438 ft 399 kts 303°
2026-05-04 14:45 28.60957 33.56057 23805 ft 401 kts 303°
2026-05-04 14:45 28.62734 33.53556 24172 ft 402 kts 303°
2026-05-04 14:45 28.64493 33.51075 24510 ft 403 kts 303°
2026-05-04 14:46 28.66261 33.48588 24845 ft 404 kts 303°
2026-05-04 14:46 28.68036 33.46092 25164 ft 406 kts 303°
2026-05-04 14:46 28.69818 33.43582 25463 ft 407 kts 303°
2026-05-04 14:46 28.71600 33.41070 25730 ft 409 kts 303°
2026-05-04 14:47 28.73396 33.38535 25994 ft 411 kts 303°
2026-05-04 14:47 28.75197 33.35991 26269 ft 413 kts 303°
2026-05-04 14:47 28.77005 33.33434 26549 ft 414 kts 303°
2026-05-04 14:47 28.78816 33.30872 26814 ft 416 kts 303°
2026-05-04 14:48 28.80633 33.28299 27083 ft 417 kts 303°
2026-05-04 14:48 28.82458 33.25713 27339 ft 419 kts 303°
2026-05-04 14:48 28.84294 33.23111 27575 ft 421 kts 303°
2026-05-04 14:48 28.85534 33.21352 27749 ft 422 kts 303°
2026-05-04 14:49 28.87374 33.18741 28010 ft 423 kts 303°
2026-05-04 14:49 28.89223 33.16115 28303 ft 423 kts 303°
2026-05-04 14:49 28.91066 33.13498 28670 ft 422 kts 303°
2026-05-04 14:49 28.92902 33.10891 29064 ft 420 kts 303°
2026-05-04 14:50 28.94730 33.08290 29426 ft 418 kts 303°
2026-05-04 14:50 28.96548 33.05702 29745 ft 418 kts 303°
2026-05-04 14:50 28.98366 33.03111 30093 ft 417 kts 303°
2026-05-04 14:50 29.00180 33.00526 30396 ft 416 kts 303°
2026-05-04 14:51 29.01981 32.97957 30695 ft 414 kts 303°
2026-05-04 14:51 29.03780 32.95388 30953 ft 414 kts 303°
2026-05-04 14:51 29.05580 32.92817 31225 ft 413 kts 302°
2026-05-04 14:51 29.07392 32.90226 31512 ft 412 kts 302°
2026-05-04 14:52 29.09206 32.87632 31790 ft 411 kts 302°
2026-05-04 14:52 29.10984 32.85087 32048 ft 410 kts 302°
2026-05-04 14:52 29.12768 32.82533 32309 ft 409 kts 302°
2026-05-04 14:52 29.14565 32.79957 32578 ft 409 kts 302°
2026-05-04 14:53 29.16337 32.77416 32820 ft 408 kts 302°
2026-05-04 14:53 29.18103 32.74881 33090 ft 406 kts 302°
2026-05-04 14:53 29.19865 32.72352 33376 ft 405 kts 302°
2026-05-04 14:53 29.21641 32.69799 33628 ft 404 kts 302°
2026-05-04 14:54 29.23385 32.67288 33867 ft 403 kts 302°
2026-05-04 14:54 29.25132 32.64774 34108 ft 402 kts 302°
2026-05-04 14:54 29.26897 32.62234 34327 ft 401 kts 302°
2026-05-04 14:54 29.28630 32.59739 34522 ft 400 kts 302°
2026-05-04 14:55 29.30360 32.57234 34706 ft 399 kts 302°
2026-05-04 14:55 29.32079 32.54736 34903 ft 398 kts 301°
2026-05-04 14:55 29.33793 32.52240 35097 ft 397 kts 301°
2026-05-04 14:55 29.35502 32.49748 35267 ft 397 kts 301°
2026-05-04 14:56 29.37207 32.47259 35391 ft 397 kts 301°
2026-05-04 14:56 29.38933 32.44738 35573 ft 396 kts 301°
2026-05-04 14:56 29.40613 32.42283 35762 ft 395 kts 301°
2026-05-04 14:56 29.42326 32.39778 35923 ft 394 kts 301°
2026-05-04 14:57 29.44040 32.37270 36025 ft 395 kts 301°
2026-05-04 14:57 29.45737 32.34784 36049 ft 396 kts 301°
2026-05-04 14:57 29.49134 32.29807 36056 ft 395 kts 301°
2026-05-04 14:58 29.52517 32.24846 36059 ft 393 kts 301°
2026-05-04 14:58 29.55876 32.19914 36064 ft 391 kts 301°
2026-05-04 14:59 29.59218 32.14999 36067 ft 389 kts 301°
2026-05-04 15:00 29.64204 32.07654 36070 ft 389 kts 301°
2026-05-04 15:00 29.67536 32.02736 36079 ft 389 kts 301°
2026-05-04 15:01 29.72552 31.95323 36083 ft 391 kts 301°
2026-05-04 15:01 29.75896 31.90371 36087 ft 392 kts 301°
2026-05-04 15:02 29.79241 31.85396 36076 ft 393 kts 300°
2026-05-04 15:02 29.82482 31.80370 36070 ft 394 kts 300°
2026-05-04 15:03 29.85738 31.75284 36068 ft 395 kts 300°
2026-05-04 15:03 29.89004 31.70196 36061 ft 395 kts 300°
2026-05-04 15:04 29.92279 31.65103 36062 ft 395 kts 300°
2026-05-04 15:04 29.95561 31.60023 36065 ft 394 kts 300°
2026-05-04 15:05 29.98837 31.54946 36056 ft 393 kts 300°
2026-05-04 15:05 30.02093 31.49884 36046 ft 392 kts 300°
2026-05-04 15:06 30.05356 31.44803 36054 ft 391 kts 300°
2026-05-04 15:07 30.10428 31.37403 36045 ft 398 kts 309°
2026-05-04 15:07 30.14517 31.33061 36050 ft 398 kts 309°
2026-05-04 15:08 30.18591 31.28743 36051 ft 397 kts 309°
2026-05-04 15:08 30.22670 31.24386 36054 ft 396 kts 309°
2026-05-04 15:09 30.26020 31.20790 36060 ft 395 kts 309°
2026-05-04 15:09 30.30061 31.16442 36062 ft 394 kts 309°
2026-05-04 15:10 30.36068 31.09967 36072 ft 393 kts 309°
2026-05-04 15:11 30.42059 31.03499 36074 ft 393 kts 309°
2026-05-04 15:11 30.46053 30.99180 36071 ft 393 kts 309°
2026-05-04 15:12 30.46427 30.98776 36068 ft 393 kts 309°
2026-05-04 15:12 30.50448 30.94422 36080 ft 393 kts 309°
2026-05-04 15:13 30.54447 30.90088 36083 ft 393 kts 309°
2026-05-04 15:13 30.58448 30.85747 36083 ft 394 kts 309°
2026-05-04 15:14 30.62456 30.81393 36087 ft 394 kts 309°
2026-05-04 15:14 30.66456 30.77043 36086 ft 395 kts 309°
2026-05-04 15:15 30.70495 30.72643 36088 ft 395 kts 309°
2026-05-04 15:15 30.74499 30.68278 36088 ft 395 kts 309°
2026-05-04 15:16 30.80538 30.61684 36090 ft 395 kts 309°
2026-05-04 15:17 30.86564 30.55091 36084 ft 394 kts 309°
2026-05-04 15:17 30.92542 30.48538 36087 ft 393 kts 309°
2026-05-04 15:18 30.96543 30.44144 36086 ft 393 kts 309°
2026-05-04 15:19 31.02502 30.37588 36090 ft 392 kts 309°
2026-05-04 15:19 31.08083 30.30740 36104 ft 381 kts 298°
2026-05-04 15:20 31.10568 30.25340 36090 ft 375 kts 286°
2026-05-04 15:20 31.12161 30.19563 36099 ft 375 kts 284°
2026-05-04 15:21 31.13730 30.13739 36107 ft 377 kts 285°
2026-05-04 15:22 31.16122 30.04951 36106 ft 380 kts 285°
2026-05-04 15:22 31.19338 29.96408 36118 ft 393 kts 303°
2026-05-04 15:23 31.23461 29.92055 36097 ft 413 kts 323°
2026-05-04 15:23 31.28555 29.88880 36111 ft 416 kts 325°
2026-05-04 15:24 31.38826 29.82602 36098 ft 413 kts 324°
2026-05-04 15:25 31.44029 29.79353 36095 ft 411 kts 324°
2026-05-04 15:26 31.51598 29.74601 36092 ft 408 kts 324°
2026-05-04 15:26 31.58236 29.70427 36088 ft 405 kts 324°
2026-05-04 15:27 31.65682 29.65735 36088 ft 404 kts 324°
2026-05-04 15:28 31.73096 29.61056 36095 ft 403 kts 324°
2026-05-04 15:29 31.80522 29.56360 36096 ft 404 kts 324°
2026-05-04 15:30 31.97939 29.45309 36089 ft 408 kts 324°
2026-05-04 15:31 32.05446 29.40529 36091 ft 409 kts 324°
2026-05-04 15:32 32.17964 29.32513 36084 ft 408 kts 324°
2026-05-04 15:34 32.30431 29.24536 36078 ft 406 kts 324°
2026-05-04 15:34 32.37894 29.19751 36080 ft 404 kts 324°
2026-05-04 15:35 32.45284 29.14998 36078 ft 402 kts 324°
2026-05-04 15:36 32.52641 29.10256 36078 ft 400 kts 324°
2026-05-04 15:36 32.57520 29.07107 36077 ft 399 kts 324°
2026-05-04 15:37 32.62391 29.03958 36078 ft 398 kts 324°
2026-05-04 15:37 32.67257 29.00809 36078 ft 398 kts 324°
2026-05-04 15:38 32.72120 28.97658 36074 ft 398 kts 324°
2026-05-04 15:38 32.76986 28.94501 36078 ft 398 kts 324°
2026-05-04 15:39 32.81852 28.91341 36078 ft 399 kts 324°
2026-05-04 15:40 32.89224 28.86545 36076 ft 399 kts 324°
2026-05-04 15:40 32.94098 28.83369 36071 ft 399 kts 324°
2026-05-04 15:41 32.98976 28.80186 36073 ft 400 kts 324°
2026-05-04 15:41 33.03858 28.76997 36072 ft 400 kts 324°
2026-05-04 15:42 33.08740 28.73804 36068 ft 400 kts 324°
2026-05-04 15:42 33.13622 28.70607 36069 ft 400 kts 324°
2026-05-04 15:43 33.18497 28.67410 36069 ft 400 kts 324°
2026-05-04 15:43 33.23376 28.64206 36066 ft 400 kts 324°
2026-05-04 15:44 33.28246 28.61005 36068 ft 399 kts 324°
2026-05-04 15:44 33.33116 28.57799 36061 ft 399 kts 324°
2026-05-04 15:45 33.37986 28.54588 36061 ft 399 kts 324°
2026-05-04 15:45 33.42811 28.51403 36062 ft 398 kts 324°
2026-05-04 15:46 33.47670 28.48192 36060 ft 398 kts 324°
2026-05-04 15:46 33.52516 28.44985 36062 ft 398 kts 324°
2026-05-04 15:47 33.57362 28.41773 36059 ft 398 kts 324°
2026-05-04 15:47 33.62201 28.38561 36060 ft 397 kts 325°
2026-05-04 15:48 33.67037 28.35347 36056 ft 397 kts 325°
2026-05-04 15:48 33.74298 28.30510 36061 ft 398 kts 325°
2026-05-04 15:49 33.79109 28.27305 36055 ft 398 kts 325°
2026-05-04 15:49 33.83798 28.23835 36063 ft 395 kts 321°
2026-05-04 15:50 33.88401 28.20209 36056 ft 395 kts 321°
2026-05-04 15:50 33.92994 28.16583 36052 ft 395 kts 321°
2026-05-04 15:51 33.97599 28.12961 36051 ft 395 kts 321°
2026-05-04 15:51 34.02211 28.09338 36056 ft 396 kts 322°
2026-05-04 15:52 34.06824 28.05712 36056 ft 396 kts 322°
2026-05-04 15:52 34.11437 28.02082 36049 ft 396 kts 322°
2026-05-04 15:53 34.16045 27.98451 36057 ft 396 kts 322°
2026-05-04 15:53 34.20648 27.94819 36052 ft 396 kts 322°
2026-05-04 15:54 34.25266 27.91170 36055 ft 396 kts 322°
2026-05-04 15:54 34.29877 27.87521 36047 ft 396 kts 322°
2026-05-04 15:55 34.34493 27.83864 36050 ft 396 kts 322°
2026-05-04 15:55 34.38363 27.80794 36052 ft 396 kts 322°
2026-05-04 15:56 34.42979 27.77128 36050 ft 397 kts 322°
2026-05-04 15:56 34.47592 27.73459 36050 ft 397 kts 322°
2026-05-04 15:57 34.52241 27.69757 36048 ft 397 kts 322°
2026-05-04 15:57 34.56826 27.66100 36051 ft 397 kts 322°
2026-05-04 15:58 34.61476 27.62387 36048 ft 397 kts 322°
2026-05-04 15:58 34.66088 27.58699 36050 ft 397 kts 322°
2026-05-04 15:59 34.70677 27.55024 36051 ft 398 kts 322°
2026-05-04 15:59 34.75301 27.51317 36049 ft 398 kts 322°
2026-05-04 16:00 34.79856 27.47417 36041 ft 395 kts 315°
2026-05-04 16:00 34.83944 27.42901 36054 ft 394 kts 315°
2026-05-04 16:01 34.87960 27.38406 36053 ft 395 kts 315°
2026-05-04 16:01 34.92264 27.33611 36062 ft 397 kts 315°
2026-05-04 16:02 34.96453 27.28959 36052 ft 398 kts 315°
2026-05-04 16:03 35.02603 27.22130 36055 ft 400 kts 315°
2026-05-04 16:03 35.06858 27.17398 36051 ft 402 kts 315°
2026-05-04 16:04 35.10317 27.13547 36059 ft 402 kts 315°
2026-05-04 16:04 35.16530 27.06617 36054 ft 403 kts 315°
2026-05-04 16:05 35.20672 27.01988 36057 ft 404 kts 315°
2026-05-04 16:06 35.27034 26.94867 36056 ft 404 kts 315°
2026-05-04 16:07 35.35344 26.85539 36058 ft 403 kts 315°
2026-05-04 16:08 35.43610 26.76234 36063 ft 403 kts 316°
2026-05-04 16:09 35.54049 26.64444 36067 ft 404 kts 316°
2026-05-04 16:10 35.61924 26.55521 36068 ft 404 kts 316°
2026-05-04 16:11 35.70234 26.46078 36071 ft 405 kts 316°
2026-05-04 16:12 35.78664 26.36470 36074 ft 407 kts 316°
2026-05-04 16:13 35.87003 26.26936 36075 ft 408 kts 316°
2026-05-04 16:14 35.95326 26.17393 36080 ft 409 kts 316°
2026-05-04 16:16 36.05761 26.05387 36089 ft 409 kts 316°
2026-05-04 16:17 36.16196 25.93336 36086 ft 410 kts 316°
2026-05-04 16:18 36.24546 25.83659 36088 ft 410 kts 316°
2026-05-04 16:19 36.34989 25.71514 36099 ft 409 kts 316°
2026-05-04 16:20 36.45395 25.59366 36109 ft 410 kts 316°
2026-05-04 16:22 36.55853 25.47110 36104 ft 410 kts 317°
2026-05-04 16:23 36.68330 25.32424 36100 ft 410 kts 317°
2026-05-04 16:25 36.80170 25.18425 36101 ft 411 kts 317°
2026-05-04 16:26 36.94718 25.01137 36102 ft 411 kts 317°
2026-05-04 16:28 37.05100 24.88741 36104 ft 412 kts 317°
2026-05-04 16:29 37.19713 24.71210 36126 ft 412 kts 317°
2026-05-04 16:31 37.30079 24.58713 36125 ft 412 kts 317°
2026-05-04 16:32 37.42487 24.43688 36126 ft 412 kts 317°
2026-05-04 16:33 37.50771 24.33617 36119 ft 412 kts 317°
2026-05-04 16:34 37.56958 24.26072 36131 ft 412 kts 317°
2026-05-04 16:35 37.69331 24.10931 36134 ft 411 kts 317°
2026-05-04 16:36 37.75552 24.03291 36128 ft 411 kts 317°
2026-05-04 16:37 37.81033 23.96542 36137 ft 411 kts 317°
2026-05-04 16:38 37.89247 23.86403 36129 ft 412 kts 317°
2026-05-04 16:39 37.99551 23.73636 36107 ft 414 kts 317°
2026-05-04 16:40 38.07822 23.63349 36105 ft 414 kts 317°
2026-05-04 16:41 38.16635 23.52349 36110 ft 414 kts 317°
2026-05-04 16:43 38.27908 23.38223 36123 ft 413 kts 317°
2026-05-04 16:43 38.34060 23.30486 36137 ft 412 kts 317°
2026-05-04 16:45 38.46256 23.15090 36124 ft 411 kts 317°
2026-05-04 16:46 38.56394 23.02232 36133 ft 409 kts 317°
2026-05-04 16:47 38.64455 22.91970 36120 ft 409 kts 318°
2026-05-04 16:48 38.72902 22.81181 36134 ft 409 kts 318°
2026-05-04 16:49 38.80969 22.70841 36111 ft 411 kts 318°
2026-05-04 16:50 38.88430 22.61245 36122 ft 411 kts 318°
2026-05-04 16:51 38.94649 22.53224 36114 ft 411 kts 318°
2026-05-04 16:52 39.02720 22.42782 36122 ft 410 kts 318°
2026-05-04 16:53 39.08766 22.34937 36113 ft 409 kts 318°
2026-05-04 16:54 39.16920 22.24324 36104 ft 408 kts 318°
2026-05-04 16:55 39.28854 22.08724 36093 ft 404 kts 319°
2026-05-04 16:56 39.38692 21.95803 36093 ft 402 kts 319°
2026-05-04 16:57 39.44572 21.88054 36090 ft 402 kts 319°
2026-05-04 16:58 39.52386 21.77727 36113 ft 401 kts 319°
2026-05-04 17:00 39.64107 21.62167 36110 ft 401 kts 319°
2026-05-04 17:01 39.73226 21.50007 36112 ft 401 kts 319°
2026-05-04 17:02 39.80973 21.39637 36095 ft 398 kts 319°
2026-05-04 17:03 39.86751 21.31880 36104 ft 398 kts 319°
2026-05-04 17:03 39.92539 21.24090 36111 ft 399 kts 319°
2026-05-04 17:04 40.00278 21.13642 36106 ft 401 kts 319°
2026-05-04 17:05 40.08051 21.03110 36121 ft 401 kts 319°
2026-05-04 17:06 40.13854 20.95223 36113 ft 401 kts 319°
2026-05-04 17:07 40.18994 20.88220 36103 ft 400 kts 319°
2026-05-04 17:07 40.23493 20.82076 36109 ft 399 kts 319°
2026-05-04 17:08 40.29242 20.74208 36105 ft 398 kts 318°
2026-05-04 17:09 40.33086 20.68935 36105 ft 396 kts 318°
2026-05-04 17:09 40.36890 20.63708 36105 ft 396 kts 318°
2026-05-04 17:10 40.46375 20.50636 36100 ft 395 kts 318°
2026-05-04 17:11 40.50176 20.45381 36103 ft 394 kts 318°
2026-05-04 17:12 40.52498 20.42166 36103 ft 393 kts 318°
2026-05-04 17:13 40.61996 20.28983 36120 ft 399 kts 318°
2026-05-04 17:14 40.69667 20.18292 36122 ft 404 kts 318°
2026-05-04 17:15 40.75463 20.10188 36114 ft 405 kts 317°
2026-05-04 17:16 40.83176 19.99366 36118 ft 403 kts 317°
2026-05-04 17:17 40.90819 19.88605 36115 ft 399 kts 317°
2026-05-04 17:18 40.98375 19.77928 36117 ft 396 kts 317°
2026-05-04 17:19 41.05891 19.67272 36127 ft 396 kts 317°
2026-05-04 17:20 41.12858 19.57360 36126 ft 398 kts 317°
2026-05-04 17:20 41.18671 19.49062 36128 ft 400 kts 317°
2026-05-04 17:21 41.26528 19.37811 36216 ft 405 kts 317°
2026-05-04 17:22 41.28447 19.35055 36408 ft 405 kts 317°
2026-05-04 17:22 41.30353 19.32315 36622 ft 404 kts 317°
2026-05-04 17:23 41.36130 19.23993 37078 ft 405 kts 316°
2026-05-04 17:23 41.38082 19.21176 37229 ft 405 kts 316°
2026-05-04 17:23 41.41885 19.15679 37541 ft 405 kts 316°
2026-05-04 17:24 41.43875 19.12801 37684 ft 405 kts 316°
2026-05-04 17:24 41.50214 19.05413 38078 ft 401 kts 326°
2026-05-04 17:25 41.52446 19.03171 38110 ft 402 kts 326°
2026-05-04 17:26 41.60667 18.94830 38108 ft 404 kts 325°
2026-05-04 17:27 41.71867 18.83322 38110 ft 403 kts 325°
2026-05-04 17:28 41.80747 18.74159 38111 ft 402 kts 324°
2026-05-04 17:29 41.94088 18.60323 38113 ft 402 kts 324°
2026-05-04 17:31 42.04699 18.48090 38114 ft 405 kts 316°
2026-05-04 17:32 42.14329 18.34039 38105 ft 405 kts 314°
2026-05-04 17:33 42.22052 18.22798 38125 ft 409 kts 314°
2026-05-04 17:34 42.29864 18.11393 38124 ft 414 kts 314°
2026-05-04 17:35 42.39667 17.97016 38123 ft 416 kts 314°
2026-05-04 17:36 42.43582 17.91254 38117 ft 415 kts 313°
2026-05-04 17:36 42.47482 17.85503 38117 ft 414 kts 313°
2026-05-04 17:37 42.51370 17.79757 38112 ft 412 kts 313°
2026-05-04 17:37 42.55235 17.74036 38112 ft 411 kts 313°
2026-05-04 17:38 42.59111 17.68285 38116 ft 409 kts 313°
2026-05-04 17:38 42.62968 17.62553 38116 ft 408 kts 313°
2026-05-04 17:39 42.68751 17.53935 38116 ft 407 kts 313°
2026-05-04 17:39 42.71917 17.49207 38116 ft 407 kts 313°
2026-05-04 17:40 42.75729 17.43503 38109 ft 408 kts 313°
2026-05-04 17:40 42.79575 17.37738 38121 ft 408 kts 313°
2026-05-04 17:41 42.83394 17.32000 38116 ft 410 kts 313°
2026-05-04 17:41 42.87227 17.26232 38108 ft 411 kts 313°
2026-05-04 17:42 42.91075 17.20429 38108 ft 412 kts 313°
2026-05-04 17:42 42.94922 17.14614 38114 ft 413 kts 313°
2026-05-04 17:43 42.98779 17.08774 38102 ft 414 kts 312°
2026-05-04 17:43 43.02637 17.02921 38110 ft 415 kts 312°
2026-05-04 17:44 43.06520 16.97017 38119 ft 415 kts 312°
2026-05-04 17:44 43.10407 16.91094 38105 ft 414 kts 312°
2026-05-04 17:45 43.14250 16.85227 38112 ft 414 kts 312°
2026-05-04 17:45 43.18082 16.79364 38094 ft 413 kts 312°
2026-05-04 17:46 43.21938 16.73451 38103 ft 412 kts 312°
2026-05-04 17:46 43.25756 16.67586 38108 ft 411 kts 311°
2026-05-04 17:47 43.29578 16.61702 38093 ft 410 kts 311°
2026-05-04 17:47 43.33444 16.55737 38091 ft 409 kts 311°
2026-05-04 17:48 43.37229 16.49886 38105 ft 409 kts 311°
2026-05-04 17:48 43.41031 16.43993 38093 ft 409 kts 311°
2026-05-04 17:49 43.44804 16.38132 38111 ft 409 kts 311°
2026-05-04 17:49 43.48578 16.32263 38101 ft 409 kts 311°
2026-05-04 17:50 43.52348 16.26316 38115 ft 409 kts 310°
2026-05-04 17:50 43.56069 16.20311 38108 ft 409 kts 310°
2026-05-04 17:51 43.59769 16.14317 38099 ft 410 kts 310°
2026-05-04 17:51 43.63465 16.08324 38118 ft 411 kts 310°
2026-05-04 17:52 43.67230 16.02213 38092 ft 411 kts 310°
2026-05-04 17:52 43.70938 15.96184 38096 ft 412 kts 310°
2026-05-04 17:53 43.74673 15.90100 38092 ft 412 kts 310°
2026-05-04 17:53 43.77752 15.85075 38088 ft 412 kts 310°
2026-05-04 17:54 43.81485 15.78969 38099 ft 413 kts 310°
2026-05-04 17:54 43.85214 15.72859 38093 ft 412 kts 310°
2026-05-04 17:55 43.88920 15.66770 38101 ft 412 kts 310°
2026-05-04 17:55 43.92617 15.60685 38100 ft 412 kts 309°
2026-05-04 17:56 43.96311 15.54593 38091 ft 413 kts 309°
2026-05-04 17:56 44.00005 15.48487 38113 ft 412 kts 309°
2026-05-04 17:57 44.03720 15.42333 38111 ft 412 kts 309°
2026-05-04 17:57 44.07401 15.36222 38098 ft 413 kts 309°
2026-05-04 17:58 44.11091 15.30084 38113 ft 413 kts 309°
2026-05-04 17:58 44.14772 15.23948 38109 ft 413 kts 309°
2026-05-04 17:59 44.18453 15.17798 38096 ft 413 kts 309°
2026-05-04 18:00 44.24002 15.08503 38097 ft 414 kts 309°
2026-05-04 18:00 44.27684 15.02318 38099 ft 414 kts 309°
2026-05-04 18:01 44.31389 14.96081 38109 ft 415 kts 309°
2026-05-04 18:01 44.35115 14.89795 38096 ft 415 kts 309°
2026-05-04 18:02 44.40710 14.80332 38099 ft 415 kts 308°
2026-05-04 18:02 44.44437 14.74009 38095 ft 415 kts 308°
2026-05-04 18:03 44.48110 14.67764 38099 ft 415 kts 308°
2026-05-04 18:03 44.51829 14.61427 38099 ft 415 kts 308°
2026-05-04 18:04 44.55525 14.55116 38101 ft 415 kts 308°
2026-05-04 18:05 44.61042 14.45669 38101 ft 415 kts 308°
2026-05-04 18:05 44.64108 14.40405 38103 ft 416 kts 308°
2026-05-04 18:06 44.69647 14.30870 38096 ft 417 kts 308°
2026-05-04 18:06 44.73333 14.24508 38092 ft 417 kts 308°
2026-05-04 18:07 44.76992 14.18179 38091 ft 417 kts 308°
2026-05-04 18:07 44.80644 14.11847 38084 ft 417 kts 307°
2026-05-04 18:08 44.84294 14.05505 38078 ft 417 kts 307°
2026-05-04 18:08 44.87970 13.99101 38076 ft 416 kts 307°
2026-05-04 18:09 44.95248 13.86382 38077 ft 417 kts 307°
2026-05-04 18:10 44.98885 13.80005 38082 ft 417 kts 307°
2026-05-04 18:10 45.02568 13.73531 38080 ft 417 kts 307°
2026-05-04 18:11 45.06253 13.67039 38083 ft 417 kts 307°
2026-05-04 18:11 45.07479 13.64875 38081 ft 417 kts 307°
2026-05-04 18:12 45.09824 13.60732 38082 ft 417 kts 307°
2026-05-04 18:12 45.13433 13.54340 38079 ft 417 kts 307°
2026-05-04 18:13 45.17076 13.47879 38074 ft 416 kts 307°
2026-05-04 18:14 45.22669 13.38418 38070 ft 417 kts 310°
2026-05-04 18:14 45.26516 13.32279 38067 ft 417 kts 309°
2026-05-04 18:15 45.33784 13.19458 38068 ft 415 kts 302°
2026-05-04 18:16 45.36991 13.12567 38060 ft 416 kts 302°
2026-05-04 18:16 45.40177 13.05701 38053 ft 416 kts 302°
2026-05-04 18:17 45.45062 12.95260 38052 ft 417 kts 302°
2026-05-04 18:18 45.49383 12.86038 38053 ft 418 kts 302°
2026-05-04 18:18 45.52645 12.79060 38050 ft 418 kts 302°
2026-05-04 18:19 45.57542 12.68549 38052 ft 419 kts 302°
2026-05-04 18:19 45.60782 12.61572 38051 ft 419 kts 302°
2026-05-04 18:20 45.63981 12.54667 38049 ft 419 kts 302°
2026-05-04 18:20 45.67231 12.47635 38050 ft 419 kts 302°
2026-05-04 18:21 45.70435 12.40684 38048 ft 419 kts 302°
2026-05-04 18:21 45.73641 12.33713 38047 ft 419 kts 301°
2026-05-04 18:22 45.76879 12.26655 38051 ft 418 kts 301°
2026-05-04 18:22 45.80115 12.19583 38073 ft 418 kts 301°
2026-05-04 18:23 45.83324 12.12552 38076 ft 418 kts 301°
2026-05-04 18:23 45.86535 12.05499 38073 ft 418 kts 301°
2026-05-04 18:24 45.89700 11.98531 38078 ft 418 kts 301°
2026-05-04 18:24 45.92895 11.91478 38081 ft 418 kts 301°
2026-05-04 18:25 45.96064 11.84465 38105 ft 419 kts 301°
2026-05-04 18:25 45.99238 11.77424 38108 ft 420 kts 301°
2026-05-04 18:26 46.02445 11.70291 38104 ft 420 kts 301°
2026-05-04 18:26 46.02968 11.69128 38108 ft 420 kts 301°
2026-05-04 18:27 46.10848 11.51517 38130 ft 420 kts 301°